Regional Weather Roundup
Issued by NWS

Home | Current Version | Previous Version | Text Only | Print | Product List | Glossary Off
Versions: 1 2 3 4 5 6 7 8 9 10 11 12 13 14 15 16 17 18 19 20 21 22 23 24 25 26 27 28 29 30 31 32 33 34 35 36 37 38 39 40 41 42 43 44 45 46 47 48 49 50

000
ASUS43 KLOT 291700
RWRIL

ILLINOIS REGIONAL WEATHER ROUNDUP
NATIONAL WEATHER SERVICE CHICAGO/ROMEOVILLE IL
1200 PM CDT WED JUL 29 2015

NOTE: "FAIR" INDICATES FEW OR NO CLOUDS BELOW 12,000 FEET WITH NO
SIGNIFICANT WEATHER AND/OR OBSTRUCTIONS TO VISIBILITY.

* THESE STATIONS ARE NOT UNDER NWS QUALITY CONTROL. THEY ALSO MAY NOT
  REPORT WEATHER SUCH AS PRECIPITATION OR FOG.

ILZ001-002-007-009-015-016-024-291800-
NORTHWEST ILLINOIS

CITY           SKY/WX    TMP DP  RH WIND       PRES   REMARKS
MOLINE         SUNNY     84  57  39 NW12      30.06R HX  83
STERLING*      MOSUNNY   84  63  48 NW10      30.03S HX  85
$$

ILZ003-004-008-010-011-017-018-291800-
NORTH CENTRAL ILLINOIS

CITY           SKY/WX    TMP DP  RH WIND       PRES   REMARKS
ROCKFORD       MOSUNNY   82  51  34 NW14G22   30.04R HX  81
$$

ILZ005-006-012>014-019>023-291800-
NORTHEAST ILLINOIS

CITY           SKY/WX    TMP DP  RH WIND       PRES   REMARKS
CHICAGO-OHARE  MOSUNNY   85  58  39 NW12      29.98S HX  84
CHICAGO-MIDWAY MOSUNNY   85  67  54 NW17      29.98R HX  87
AURORA         SUNNY     81  60  48 NW10G21   30.01S HX  82
LANSING*       CLOUDY    83  70  64 W7        29.98R HX  87
WAUKEGAN       MOSUNNY   81  64  56 VRB5      29.98S HX  82
DUPAGE AIRPORT MOSUNNY   84  58  40 NW17      30.00S HX  83
WHEELING       MOSUNNY   85  60  42 NW12G17   29.99S HX  85
NORTHERLY ISL    N/A     81  67  62 W8          N/A  HX  83
$$

LMZ740>746-291800-
SOUTHERN LAKE MICHIGAN

STATION/POSITION SKY/WX   TEMP    WIND        PRES    VSBY  WAVE
                          AIR SEA DIR/SP/G                  HT/PER
                          (F)     (DEG/KT/KT) (MB)    (MI)  (FT/S)
HARRISON CRIB              76     360/ 10/ 12   N/A
BURNHAM HARBOR             78      20/  3/ 10   N/A
CALUMET HARBOR             80      20/  6/ 10   N/A
BURNS HARBOR               76     310/  7/  9 1015.6R
MICHIGAN CITY              75     240/ 10/ 11   N/A
MICHIGAN CITY 6N           76 74  290/  8/ 10   N/A           1/ 2
ST. JOSEPH                 75 75  300/  8/ 10   N/A           1/ 3
$$

ILZ025>027-034>036-040-047-049-050-058-095>099-291800-
WEST-CENTRAL ILLINOIS

CITY           SKY/WX    TMP DP  RH WIND       PRES   REMARKS
QUINCY         MOSUNNY   82  66  58 N12       30.08S HX  84
MACOMB*        SUNNY     82  66  58 NW8       30.10S HX  84
$$

ILZ028>032-037-038-041>044-048-051>054-059>061-291800-
CENTRAL ILLINOIS

CITY           SKY/WX    TMP DP  RH WIND       PRES   REMARKS
DECATUR        PTSUNNY   86  76  71 N13       30.03R HX  96
PEORIA         MOSUNNY   86  67  52 VRB6G16   30.05R HX  89
SPRINGFIELD    PTSUNNY   87  76  69 NW10      30.04R HX  97
TAYLORVILLE    NOT AVBL
$$

ILZ033-039-045-046-055>057-062-063-291800-
EAST-CENTRAL ILLINOIS

CITY           SKY/WX    TMP DP  RH WIND       PRES   REMARKS
CHAMPAIGN      CLOUDY    82  75  79 NW6       30.02S HX  89
MATTOON        CLOUDY    82  75  79 NW10      30.01R HX  89
$$

ILZ079-100>102-291800-
SOUTHWEST ILLINOIS

CITY           SKY/WX    TMP DP  RH WIND       PRES   REMARKS
ALTON          MOSUNNY   81  72  74 N12       30.05R HX  84
CAHOKIA*       PTSUNNY   86  72  62 N16       30.05R HX  92
SPARTA*        MOSUNNY   89  79  73 W5        30.02R HX 105
$$

ILZ064>066-069>071-074>076-080>082-084>086-088>090-092>094-291800-
SOUTH-CENTRAL ILLINOIS

CITY           SKY/WX    TMP DP  RH WIND       PRES   REMARKS
CARBONDALE     SUNNY     91  79  67 W8        30.00S HX 107
MARION         MOSUNNY   91  79  66 NW8       30.01S HX 107
MT. VERNON     MOSUNNY   91  75  59 CALM      29.99S HX 102
SALEM*         PTSUNNY   88  78  71 W9        30.01R HX 101
$$

ILZ067-068-072-073-078-083-087-091-291800-
SOUTHEAST ILLINOIS

CITY           SKY/WX    TMP DP  RH WIND       PRES   REMARKS
LAWRENCEVILLE  CLOUDY    86  77  74 SW7       29.99R HX  97
FLORA*         CLOUDY    90  79  70 SW3       29.99R HX 104
HARRISBURG*    MOSUNNY   90  80  71 SW5       30.00F HX 107
ROBINSON*      CLOUDY    86  78  76 SW3       29.99S HX  99
CARMI*         MOSUNNY   88  75  64 CALM      29.99F HX  97
$$

ABBREVIATIONS USED IN REMARKS
   TC - TEMPERATURE IN CELSIUS
  WCI - WIND CHILL INDEX
   HX - HEAT INDEX
  VSB - VISIBILITY
$$



USA.gov is the U.S. government's official web portal to all federal, state and local government web resources and services.